Location: ??????????
(54.8537°N, 38.8755°E)
Time: 03:16:52
(UTC+00:00)

Vanguard 2 Rocket - Pass Details

Date: 22 September 2024
Orbit: 553 x 3298 km, 32.9° (Epoch: 10 October)

Event Time Altitude Azimuth Distance (km) Brightness Sun altitude
Rises 23:51:27 0° 242° (WSW) 4,428 - -26.6°
Reaches altitude 10° 23:54:45 10° 228° (SW) 3,828 - -26.2°
Exits shadow 00:01:47 24° 185° (S) 3,567 9.5 -25.5°
Maximum altitude 00:02:35 24° 180° (S) 3,631 9.5 -25.4°
Drops below altitude 10° 00:13:39 10° 136° (SE) 5,569 10.9 -24.2°
Sets 00:19:55 0° 125° (SE) 6,945 11.6 -23.5°
